Location: St. Louis
(38.6270°N, 90.1994°W)
Time: 01:42:05
(UTC-06:00)

Transit 2A - Pass Details

Date: 02 December 2021
Orbit: 591 x 966 km, 66.7° (Epoch: 24 January)

Event Time Altitude Azimuth Distance (km) Brightness Sun altitude
Rises 00:25:09 0° 212° (SSW) 3,219 - -71.8°
Reaches altitude 10° 00:27:26 10° 214° (SSW) 2,352 - -71.6°
Maximum altitude 00:32:53 75° 299° (WNW) 886 - -71.0°
Drops below altitude 10° 00:38:58 10° 26° (NNE) 2,606 - -70.4°
Sets 00:41:37 0° 28° (NNE) 3,591 - -70.1°
